{"data":{"norad_id":66768,"intl_designator":"2025-276DG","name":"LEMUR-2-TEODOR","alt_names":[],"object_type":"PAYLOAD","status":"ACTIVE","operator":null,"country":"US","launch_date":"2025-11-28","launch_site_code":"AFWTR","launch_vehicle":null,"mission":null,"orbit_class":"UNKNOWN","rcs_meters":null,"size_class":null,"mass_kg":null,"dimensions":null,"purposes":["earth_obs"],"wikipedia_slug":null,"has_3d_model":false,"image_url":null,"decayed_at":null,"tle_current":{"epoch":"2026-05-25T03:41:50.934336Z","epoch_age_seconds":61858,"freshness":"FRESH","line1":"1 66768U 25276DG  26145.15406174  .00005622  00000+0  25844-3 0  9991","line2":"2 66768  97.4154 219.2804 0001324 127.4540 232.6816 15.20755166 26941","mean_motion":15.20755166,"eccentricity":0.0001324,"inclination_deg":97.4154,"raan_deg":219.2804,"arg_perigee_deg":127.454,"mean_anomaly_deg":232.6816,"bstar":0.00025844,"rev_number":2694,"period_min":94.689798344568,"perigee_km":502.65035646446,"apogee_km":504.47263022549,"semimajor_km":6881.698493345,"source":"CELESTRAK","updated_at":"2026-05-25T13:38:13.574140Z"}}}